Content
SEND FEEDBACK

Daily
Averages
Monthly
Summary
United States of America

MASARDIS, MAINE


Home > North America > United States > Maine
Elevation: 699 feet     Latitude: 46 33N     Longitude: 068 20W

WEATHER
 
SELECT A DAY
Number of Records: 468,172;   Date Range: 1/1/95 - 11/22/14
 
SHARE

PRINT THIS DATA

[ ← Previous Day ]
WEATHER ALMANAC - JANUARY 23, 2013
[ Next Day → ]
[ °C ]   °F
Weather ElementAverageHighLow
Temperature-10.4 °F-2.2 °F (2:15 pm)-23.8 °F (7:15 am)
Dewpoint-20.9 °F (2:35 am)-27.4 °F (1:55 am)
Humidity45 %92 % (7:55 am)32 % (2:15 pm)
Wind Speed9.9 mph19.6 mph (2:35 pm)
Wind Gust31.1 mph (5:15 pm)
Weather ElementAverage
Visibility9.3 mi
Wind DirectionSSW (211.2 °)

Weather ElementTotal
Precipitation---
Heating Degree Days78 (Base 65)
Averaged from 68 records on January 23, 2013
WEATHER CONDITIONS BREAKOUT
WIND DIRECTION BREAKOUT
WEATHER BY HOUR - JANUARY 23, 2013
[ °C ]   °F
Local TimeTemperatureDewpointHumidityBarometerVisibilityWind DirectionWind SpeedGust SpeedPrecipitationEventsConditions
12:35 AM-14.8 °F-23.8 °F64 %29.74 in3.0 miCalmOvercast
12:55 AM-13.0 °F-22.0 °F64 %29.75 in3.0 miCalmOvercast
1:15 AM-11.2 °F-16.6 °F77 %29.76 in2.0 miNW (320°)3.5 mphOvercast
1:35 AM-11.2 °F-20.2 °F64 %29.76 in6.0 miCalmOvercast
1:55 AM-13.0 °F-27.4 °F49 %29.77 in5.0 miCalmOvercast
2:35 AM-11.2 °F0.0 °F3.0 miCalmOvercast
2:55 AM-9.4 °F0.0 °F8.0 miCalmOvercast
3:15 AM-11.2 °F0.0 °F10.0 miWNW (290°)3.5 mphMostly Cloudy
3:35 AM-11.2 °F0.0 °F10.0 miCalmPartly Cloudy
3:55 AM-14.8 °F0.0 °F10.0 miWest (280°)3.5 mphClear
4:16 AM-14.8 °F0.0 °F10.0 miCalmClear
4:35 AM-14.8 °F0.0 °F29.75 in10.0 miWNW (300°)4.6 mphClear
4:55 AM-14.8 °F0.0 °F10.0 miCalmClear
5:15 AM-14.8 °F0.0 °F29.75 in10.0 miWNW (290°)6.9 mphClear
5:35 AM-14.8 °F-27.4 °F53 %29.76 in10.0 miWNW (290°)4.6 mphClear
5:55 AM-14.8 °F-25.6 °F58 %29.77 in10.0 miNW (310°)4.6 mphScattered Clouds
6:15 AM-16.6 °F-27.4 °F58 %29.77 in10.0 miCalmPartly Cloudy
6:35 AM-20.2 °F0.0 °F10.0 miCalmScattered Clouds
6:55 AM-20.2 °F0.0 °F8.0 miWSW (250°)3.5 mphPartly Cloudy
7:15 AM-23.8 °F0.0 °F10.0 miCalmClear
7:35 AM-23.8 °F0.0 °F10.0 miCalmClear
7:55 AM-16.6 °F-18.4 °F92 %29.79 in10.0 miWest (270°)3.5 mphPartly Cloudy
8:15 AM-13.0 °F-25.6 °F53 %29.79 in10.0 miWSW (250°)4.6 mphClear
8:35 AM-11.2 °F-27.4 °F45 %29.79 in10.0 miWSW (250°)10.4 mphClear
8:55 AM-11.2 °F-25.6 °F49 %29.79 in10.0 miWest (260°)12.7 mph19.6 mphClear
9:15 AM-11.2 °F-25.6 °F49 %29.80 in10.0 miWest (270°)8.1 mph19.6 mphClear
9:35 AM-9.4 °F-25.6 °F45 %29.80 in10.0 miWest (270°)10.4 mph19.6 mphClear
9:55 AM-9.4 °F-25.6 °F45 %29.79 in9.0 miWest (260°)18.4 mph24.2 mphClear
10:15 AM-9.4 °F-23.8 °F49 %29.79 in8.0 miWest (270°)15.0 mph21.9 mphClear
10:35 AM-7.6 °F-25.6 °F41 %29.78 in5.0 miWest (260°)17.3 mph27.6 mphClear
10:55 AM-7.6 °F-25.6 °F41 %29.77 in10.0 miWest (270°)16.1 mph20.7 mphClear
11:15 AM-7.6 °F-25.6 °F41 %29.76 in10.0 miWest (270°)15.0 mph19.6 mphClear
11:36 AM-5.8 °F-23.8 °F42 %29.76 in10.0 miWest (260°)15.0 mphClear
11:55 AM-5.8 °F-25.6 °F38 %29.75 in10.0 miWest (280°)13.8 mph19.6 mphClear
12:15 PM-5.8 °F-25.6 °F38 %29.74 in10.0 miWest (260°)15.0 mph21.9 mphClear
12:35 PM-5.8 °F-25.6 °F38 %29.73 in10.0 miWest (270°)15.0 mph26.5 mphClear
12:55 PM-4.0 °F-25.6 °F35 %29.72 in10.0 miWest (270°)13.8 mph23.0 mphClear
1:15 PM-4.0 °F-25.6 °F35 %29.73 in10.0 miWest (280°)15.0 mph19.6 mphClear
1:35 PM-4.0 °F-25.6 °F35 %29.72 in10.0 miWSW (250°)15.0 mph18.4 mphClear
1:55 PM-4.0 °F-25.6 °F35 %29.72 in10.0 miWSW (250°)17.3 mph24.2 mphClear
2:15 PM-2.2 °F-25.6 °F32 %29.72 in10.0 miWSW (240°)12.7 mphClear
2:35 PM-4.0 °F-25.6 °F35 %29.73 in10.0 miWest (260°)19.6 mph23.0 mphClear
2:55 PM-4.0 °F-25.6 °F35 %29.73 in10.0 miWest (260°)15.0 mphClear
3:15 PM-4.0 °F-25.6 °F35 %29.72 in10.0 miWSW (250°)13.8 mph23.0 mphClear
3:35 PM-4.0 °F-25.6 °F35 %29.73 in10.0 miWest (260°)15.0 mphClear
3:55 PM-5.8 °F-25.6 °F38 %29.73 in10.0 miWest (260°)18.4 mph23.0 mphClear
4:15 PM-5.8 °F-25.6 °F38 %29.73 in10.0 miWest (270°)9.2 mph17.3 mphClear
4:35 PM-5.8 °F-27.4 °F35 %29.73 in10.0 miWest (260°)10.4 mph18.4 mphClear
4:55 PM-7.6 °F-27.4 °F38 %29.73 in10.0 miWSW (250°)13.8 mph19.6 mphClear
5:15 PM-7.6 °F-27.4 °F38 %29.73 in10.0 miWest (260°)19.6 mph31.1 mphClear
5:35 PM-7.6 °F-27.4 °F38 %29.72 in10.0 miWSW (250°)11.5 mph20.7 mphClear
5:55 PM-9.4 °F-27.4 °F41 %29.72 in10.0 miWSW (250°)13.8 mph20.7 mphClear
6:15 PM-9.4 °F-27.4 °F41 %29.72 in10.0 miWSW (250°)16.1 mph21.9 mphClear
6:35 PM-9.4 °F-27.4 °F41 %29.72 in10.0 miWSW (240°)16.1 mph20.7 mphClear
6:55 PM-9.4 °F-27.4 °F41 %29.72 in10.0 miWSW (250°)17.3 mph23.0 mphClear
7:15 PM-11.2 °F-27.4 °F45 %29.72 in10.0 miWSW (240°)12.7 mph20.7 mphClear
7:55 PM-11.2 °F-27.4 °F45 %29.72 in10.0 miWSW (250°)17.3 mph23.0 mphMostly Cloudy
8:15 PM-11.2 °F-27.4 °F45 %29.71 in10.0 miWSW (240°)16.1 mph24.2 mphOvercast
8:35 PM-11.2 °F-27.4 °F45 %29.72 in10.0 miWSW (250°)15.0 mph25.3 mphOvercast
8:55 PM-11.2 °F-27.4 °F45 %29.72 in10.0 miWSW (240°)10.4 mph21.9 mphOvercast
9:15 PM-11.2 °F-27.4 °F45 %29.71 in10.0 miWSW (240°)11.5 mph16.1 mphOvercast
9:55 PM-11.2 °F-27.4 °F45 %29.71 in10.0 miWSW (250°)12.7 mph16.1 mphOvercast
10:15 PM-11.2 °F-27.4 °F45 %29.71 in10.0 miWSW (250°)10.4 mph17.3 mphOvercast
10:35 PM-11.2 °F-27.4 °F45 %29.70 in10.0 miWSW (250°)11.5 mph19.6 mphScattered Clouds
10:55 PM-11.2 °F-27.4 °F45 %29.70 in10.0 miWSW (250°)13.8 mph20.7 mphMostly Cloudy
11:15 PM-9.4 °F-27.4 °F41 %29.70 in10.0 miWSW (250°)10.4 mphScattered Clouds
11:35 PM-9.4 °F-25.6 °F45 %29.70 in10.0 miWSW (240°)11.5 mph16.1 mphClear
11:55 PM-9.4 °F-25.6 °F45 %29.68 in10.0 miWSW (250°)12.7 mph19.6 mphClear
Hourly data recorded from KPQI, located miles away from Masardis, Maine







STORIES FROM OUR PARTNERS